星链-33675 (STARLINK-33675)

导读 | 豆包AI

STARLINK-33675是美国SpaceX星链星座的一颗卫星,于2025年3月31日发射升空,归属Starlink Gen2网络构型,为全球提供低延迟、高速率的卫星互联网服务,覆盖偏远地区与传统网络基础设施难以触及的区域。星链低轨星座持续扩容,该卫星补网增强星座服务能力,支撑民用、商用乃至特殊领域的通信需求。

基本信息
目录编号:
63423
目录名称:
STARLINK-33675
国际标识:
2025-065AA
轨道中心:
EARTH
卫星名称:
星链-33675
卫星全名:
星链-33675 (STARLINK-33675)
卫星状态:
在轨 (已飞行348 天)
发射日期:
2025-03-31 UTC
国别 :
美国 (US)
星等 :
--
轨道信息
数据来源 国际轨道数据
星历时间: 2026-03-14T17:30:41+0800
12小时前
查看轨道信息
半长轴: 6861.063km
偏心率: 0.0002231
轨道倾角: 43.006°
近地点辐角 248.680°
升交点赤经 80.099°
平近点角 111.382°
近地点: 481.395km
远地点: 484.457km
周期: 94.264分钟
每日圈数: 15.276212
详细信息
固有亮度:
5
最大亮度:
2.5
卫星平台:
Starlink V1.0
覆盖范围:
全球
运营商:
太空探索技术公司
运营商所在国:
美国
制造商(研发单位):
太空探索技术公司
制造商所在国:
美国
使用方式:
暂无
卫星简介
Starlink 计划是 SpaceX 推出的全球卫星互联网项目,通过发射低轨道卫星,为全球尤其是偏远地区提供高速、低延迟的互联网服务。自 2019 年起,Starlink 已部署数千颗卫星,旨在缩小全球数字鸿沟,推动互联网普及。该项目还为军事、航空等行业提供通信支持,带来广泛经济效益。
2D轨道图
3D轨道图
轨道高度分析图
轨道倾角分析图
轨道综合分析图
查看轨道综合分析图